Погода в Серышеве

Россия / Амурская область     51°05′32″N   128°22′55″E
темп.,
°C
ветер,
м/с
пор.,
м/с
влажн.,
%
обл.,
%
осадки,
мм/ч
давл.,
гПа
погр.,
м
20 апреля, вт
вт2000:00−1сз916360 0.0 10131405
03:00−2сз1018370 0.0 10121327
06:00−3сз1018380 0.0 10121416
09:000сз1116280 0.0 10141401
12:00+6сз913190 0.0 10141652
15:00+9сз811110 0.0 10131687
18:00+10сз58140 0.0 10131539
21:00+5юв22195 0.0 101410
21 апреля, ср
ср2100:00+4юв44245 0.0 101451
03:00+2юв473585 0.0 101595
06:00+1вюв49450 0.0 1015147
09:00+9ююв57340 0.0 1014379
12:00+17ю78245 0.0 10131002
15:00+21ююз710218 0.0 10101455
18:00+20ю8142596 0.0 1009827
21:00+16ююз616307 0.0 1011377
22 апреля, чт
чт2200:00+13ююв514380 0.0 1011237
03:00+12ююв617370 0.0 1011315
06:00+11ююв817400 0.0 1010367
09:00+17ю10153366 0.0 1010710
12:00+20ююз81234100 0.2 10111211
15:00+24юз101323100 0.2 10102392
18:00+22юз81330100 0.0 10131838
21:00+13ссз694898 0.0 1018535
23 апреля, пт
пт2300:00+7ссз71154100 0.0 1023593
03:00+4ссз61149100 0.0 1026634
06:00+3ссз61041100 0.1 1028764
09:00+3ссз6837100 0.1 1030677
12:00+6ссз7822100 0.0 10301310
15:00+7ссз81016100 0.0 10291782
18:00+7ссз7101622 0.0 10302091
21:00+4с6122440 0.0 1032501
24 апреля, сб
сб2400:000ссз411360 0.0 1033356
03:00−1сз36440 0.0 103295
06:00−2зсз311481 0.0 1031287
09:00+5сз914321 0.0 10291955
12:00+8ссз101519100 0.0 10273548
15:00+9ссз111618100 0.0 10253441
18:00+8с10162199 0.0 10243011
21:00+5ссз5113174 0.0 1025461